AG6V Weather Reports


time (UTC)temp
C
wind
direction
speed
KPH
gust
KPH
rain 1hr
cm
rain 24hr
cm
rain mn
cm
humidity
%
barometer
mb
20260506143040 10 221 0.0 0.0 0.00 0.00 0.00 94 1019.7
20260506141540 10 221 0.0 0.0 0.00 0.00 0.00 94 1019.8
20260506140038 10 193 0.0 0.0 0.00 0.00 0.00 94 1019.3
20260506134533 10 184 0.0 0.0 0.00 0.00 0.00 93 1019.1
20260506133029 10 184 0.0 0.0 0.00 0.00 0.00 93 1019.1
20260506131529 10 186 0.0 0.0 0.00 0.00 0.00 93 1019.2
20260506130020 10 194 0.0 0.0 0.00 0.00 0.00 93 1018.9
20260506124517 10 224 0.0 0.0 0.00 0.00 0.00 94 1018.8
20260506123011 10 205 0.0 0.0 0.00 0.00 0.00 94 1018.9
20260506121508 10 167 0.0 0.0 0.00 0.00 0.00 94 1018.6
20260506120011 10 167 0.0 0.0 0.00 0.00 0.00 94 1018.5
20260506114507 10 188 0.0 0.0 0.00 0.00 0.00 95 1018.5
20260506113004 10 194 0.0 0.0 0.00 0.00 0.00 95 1018.5
20260506111502 10 78 0.0 0.0 0.00 0.00 0.00 95 1018.2
20260506110002 10 37 0.0 0.0 0.00 0.00 0.00 95 1018.1
20260506104609 9 37 0.0 0.0 0.00 0.00 0.00 96 1018.0
20260506103105 9 37 0.0 0.0 0.00 0.00 0.00 96 1017.8
20260506101627 9 36 0.0 0.0 0.00 0.00 0.00 96 1017.7
20260506100059 8 36 0.0 0.0 0.00 0.00 0.00 95 1017.6
20260506094558 8 32 0.0 0.0 0.00 0.00 0.00 95 1017.6
20260506093059 9 32 0.0 0.0 0.00 0.00 0.00 95 1017.6
20260506091554 9 215 0.0 0.0 0.00 0.00 0.00 94 1017.5
20260506090104 9 26 0.0 1.6 0.00 0.00 0.00 95 1017.4
20260506084606 9 32 0.0 0.0 0.00 0.00 0.00 94 1017.4
20260506083053 9 106 0.0 0.0 0.00 0.00 0.00 94 1017.5
20260506081549 9 51 0.0 0.0 0.00 0.00 0.00 94 1017.3
20260506073046 9 315 0.0 0.0 0.00 0.00 0.00 93 1017.1
20260506071543 10 315 0.0 0.0 0.00 0.00 0.00 93 1016.9
20260506061537 10 29 0.0 0.0 0.00 0.00 0.00 91 1016.6
20260506060137 10 99 0.0 0.0 0.00 0.00 0.00 91 1016.7
20260506044533 11 139 0.0 0.0 0.00 0.00 0.00 88 1016.1
20260506043034 12 157 0.0 0.0 0.00 0.00 0.00 87 1015.8
20260506041550 12 273 0.0 0.0 0.00 0.00 0.00 86 1015.7
20260506040033 12 273 0.0 0.0 0.00 0.00 0.00 85 1015.6
20260506034547 12 300 0.0 0.0 0.00 0.00 0.00 84 1015.3
20260506033032 13 82 0.0 0.0 0.00 0.00 0.00 83 1015.1
20260506031532 13 182 0.0 0.0 0.00 0.00 0.00 82 1015.1
20260506030036 13 161 0.0 0.0 0.00 0.00 0.00 82 1015.1
20260506024530 14 275 0.0 1.6 0.00 0.00 0.00 81 1015.1
20260506023030 15 163 0.0 0.0 0.00 0.00 0.00 81 1015.1
20260506021530 15 211 0.0 0.0 0.00 0.00 0.00 80 1015.2
20260506020029 15 150 0.0 0.0 0.00 0.00 0.00 79 1015.2
20260506014529 16 251 0.0 0.0 0.00 0.00 0.00 78 1015.2
20260506013038 16 240 0.0 0.0 0.00 0.00 0.00 76 1015.2
20260506011528 17 318 0.0 0.0 0.00 0.00 0.00 75 1015.2
20260506010032 17 38 0.0 0.0 0.00 0.00 0.00 74 1015.1
20260506004526 18 19 0.0 0.0 0.00 0.00 0.00 72 1015.2
20260506003027 20 15 0.0 0.0 0.00 0.00 0.00 69 1015.1
20260506001526 20 15 0.0 0.0 0.00 0.00 0.00 67 1015.3
20260506000025 20 15 0.0 0.0 0.00 0.00 0.00 69 1015.5
20260505234525 21 26 0.0 0.0 0.00 0.00 0.00 65 1015.6
20260505233028 21 28 0.0 0.0 0.00 0.00 0.00 66 1015.7
20260505231520 20 24 0.0 0.0 0.00 0.00 0.00 69 1015.8
20260505230016 19 24 0.0 0.0 0.00 0.00 0.00 72 1015.8
20260505224516 19 5 0.0 0.0 0.00 0.00 0.00 71 1016.1
20260505223012 18 123 0.0 0.0 0.00 0.00 0.00 73 1016.1
20260505221509 18 154 0.0 0.0 0.00 0.00 0.00 73 1016.2
20260505220015 18 305 0.0 0.0 0.00 0.00 0.00 74 1016.2
20260505214505 17 138 0.0 0.0 0.00 0.00 0.00 75 1016.4
20260505213004 17 83 0.0 0.0 0.00 0.00 0.00 74 1016.4
20260505211502 17 188 0.0 0.0 0.00 0.00 0.00 76 1016.5
20260505210106 16 146 0.0 0.0 0.00 0.00 0.00 76 1016.5
20260505204603 16 185 0.0 0.0 0.00 0.00 0.00 77 1016.6
20260505203106 16 162 0.0 0.0 0.00 0.00 0.00 78 1016.5
20260505201553 16 100 0.0 0.0 0.00 0.00 0.00 78 1016.6
20260505194549 15 190 0.0 0.0 0.00 0.00 0.00 80 1016.7
20260505193059 15 134 0.0 0.0 0.00 0.00 0.00 79 1016.5
20260505191544 15 146 0.0 0.0 0.00 0.00 0.00 83 1016.6
20260505190044 15 175 0.0 1.6 0.00 0.00 0.00 82 1016.5
20260505184537 14 115 0.0 0.0 0.00 0.00 0.00 83 1016.5
20260505183037 14 176 0.0 0.0 0.00 0.00 0.00 84 1016.5
20260505181534 13 169 0.0 0.0 0.00 0.00 0.00 85 1016.5
20260505180032 13 148 0.0 0.0 0.00 0.00 0.00 86 1016.3
20260505174527 13 172 0.0 0.0 0.00 0.00 0.00 86 1016.4
20260505173026 13 177 0.0 0.0 0.00 0.00 0.00 86 1016.3
20260505171523 13 175 0.0 0.0 0.00 0.00 0.00 87 1016.3
20260505170029 13 201 0.0 0.0 0.00 0.00 0.00 87 1016.2
20260505164519 13 121 0.0 0.0 0.00 0.00 0.00 89 1016.2
20260505163018 12 118 0.0 0.0 0.00 0.00 0.00 89 1016.2
20260505161533 12 99 0.0 1.6 0.00 0.00 0.00 89 1016.2
20260505153013 12 211 0.0 0.0 0.00 0.00 0.00 91 1016.0
20260505151506 12 120 0.0 1.6 0.00 0.00 0.00 91 1015.9